Terminal Aerodrome Forecast
Issued by NWS

Home | Current Version | Previous Version | Text Only | Print | Product List | Glossary On
Versions: 1 2 3 4 5 6 7 8 9 10 11 12 13 14 15 16 17 18 19 20 21 22 23 24 25 26 27 28 29 30 31 32 33 34 35 36 37 38 39 40 41 42 43 44 45 46 47 48 49 50
000
FTUS43 KMKX 150924 AAA
TAFENW
TAF AMD
KENW 150924Z 1509/1606 24004KT P6SM SCT050 BKN080
     FM151600 30005KT P6SM -SHRA SCT050 OVC080
     FM151800 35006KT P6SM -SHRA OVC030
      TEMPO 1518/1521 5SM -SHRA SCT008 OVC015
     FM152100 36011KT P6SM VCSH OVC022
     FM152300 34007KT P6SM OVC040
     FM160200 33006KT P6SM SCT050=

USA.gov is the U.S. government's official web portal to all federal, state and local government web resources and services.